FW5837 Weather Reports


Display with metric or nautical units.
time (UTC)temp
F
wind
direction
speed
MPH
gust
MPH
rain 1hr
in
rain 24hr
in
rain mn
in
humidity
%
barometer
mb
20240523085529 63 174 3.0 12.0 0.02 0.02 0.02 87 1012.5
20240523085030 63 246 4.0 12.0 0.01 0.01 0.01 87 1012.3
20240523084539 63 209 2.0 9.0 0.01 0.01 0.01 88 1012.4
20240523084029 63 0 0.0 7.0 0.01 0.01 0.01 87 1012.5
20240523083529 63 236 2.0 9.0 0.01 0.01 0.01 87 1012.2
20240523083042 63 246 2.0 9.0 0.01 0.01 0.01 88 1012.2
20240523082529 62 262 2.0 7.0 0.01 0.01 0.01 88 1012.1
20240523082029 62 238 2.0 8.0 0.01 0.01 0.01 88 1012.1
20240523081533 62 222 2.0 8.0 0.01 0.01 0.01 88 1012.2
20240523081031 63 250 2.0 5.0 0.01 0.01 0.01 88 1012.2
20240523080529 63 240 2.0 10.0 0.01 0.01 0.01 87 1012.2
20240523080043 64 234 2.0 11.0 0.00 0.00 0.00 84 1012.2
20240523075530 65 245 4.0 12.0 0.00 0.00 0.00 81 1012.3
20240523075033 66 258 4.0 12.0 0.00 0.00 0.00 78 1012.4
20240523074541 66 260 4.0 12.0 0.00 0.00 0.00 76 1012.3
20240523074031 66 257 3.0 10.0 0.00 0.00 0.00 76 1012.1
20240523073529 67 223 4.0 9.0 0.00 0.00 0.00 76 1012.2
20240523073034 67 255 2.0 10.0 0.00 0.00 0.00 76 1012.3
20240523072530 67 246 3.0 11.0 0.00 0.00 0.00 76 1012.3
20240523072030 67 254 4.0 11.0 0.00 0.00 0.00 76 1012.4
20240523071538 67 244 4.0 11.0 0.00 0.00 0.00 76 1012.4
20240523071033 67 249 4.0 12.0 0.00 0.00 0.00 76 1012.3
20240523070530 67 258 4.0 12.0 0.00 0.00 0.00 76 1012.2
20240523070045 67 196 4.0 18.0 0.00 0.00 0.00 76 1012.2
20240523065530 67 207 5.0 18.0 0.00 0.00 0.00 75 1012.1
20240523065030 68 235 6.0 17.0 0.00 0.00 0.00 75 1012.1
20240523064535 68 268 5.0 13.0 0.00 0.00 0.00 76 1012.2
20240523064029 68 248 7.0 14.0 0.00 0.00 0.00 76 1012.2
20240523063529 68 252 5.0 14.0 0.00 0.00 0.00 75 1012.2
20240523063037 68 261 7.0 11.0 0.00 0.00 0.00 76 1012.3
20240523062530 68 258 4.0 12.0 0.00 0.00 0.00 77 1012.4
20240523062032 68 257 5.0 12.0 0.00 0.00 0.00 78 1012.5
20240523061546 68 259 5.0 13.0 0.00 0.00 0.00 77 1012.6
20240523061032 68 225 5.0 13.0 0.00 0.00 0.00 78 1012.6
20240523060532 68 231 5.0 12.0 0.00 0.00 0.00 78 1012.7
20240523060041 68 233 4.0 11.0 0.00 0.00 0.00 78 1012.6
20240523055529 68 280 4.0 11.0 0.00 0.00 0.00 80 1012.8
20240523055035 68 252 4.0 12.0 0.00 0.00 0.00 80 1012.7
20240523054541 68 259 4.0 12.0 0.00 0.00 0.00 80 1012.6
20240523054037 68 249 4.0 11.0 0.00 0.00 0.00 80 1012.5
20240523053529 68 234 5.0 16.0 0.00 0.00 0.00 80 1012.7
20240523053036 68 226 6.0 16.0 0.00 0.00 0.00 80 1012.7
20240523052533 68 265 4.0 11.0 0.00 0.00 0.00 80 1012.8
20240523052031 68 275 4.0 11.0 0.00 0.00 0.00 80 1012.8
20240523051539 68 267 3.0 12.0 0.00 0.00 0.00 79 1012.9
20240523051032 68 198 3.0 12.0 0.00 0.00 0.00 79 1012.8
20240523050533 68 261 4.0 12.0 0.00 0.00 0.00 79 1012.9
20240523050043 68 298 4.0 13.0 0.00 0.00 0.00 79 1013.0
20240523045533 68 239 2.0 13.0 0.00 0.00 0.00 79 1013.1
20240523045032 68 263 3.0 10.0 0.00 0.00 0.00 79 1013.0
20240523044536 68 233 3.0 11.0 0.00 0.00 0.00 79 1013.0
20240523044036 68 241 3.0 11.0 0.00 0.00 0.00 79 1013.0
20240523043532 68 269 3.0 14.0 0.00 0.00 0.00 78 1013.0
20240523043036 68 263 5.0 14.0 0.00 0.00 0.00 78 1012.9
20240523042532 68 244 4.0 11.0 0.00 0.00 0.00 78 1013.0
20240523042032 68 241 5.0 10.0 0.00 0.00 0.00 78 1013.0
20240523041553 68 251 5.0 10.0 0.00 0.00 0.00 78 1013.0
20240523041031 68 224 4.0 11.0 0.00 0.00 0.00 79 1012.8
20240523040529 67 219 3.0 13.0 0.00 0.00 0.00 79 1012.7
20240523040043 67 188 4.0 13.0 0.00 0.00 0.00 79 1012.8
20240523035532 68 171 3.0 13.0 0.00 0.00 0.00 79 1012.7
20240523035032 68 234 3.0 9.0 0.00 0.00 0.00 79 1012.7
20240523034543 68 159 4.0 11.0 0.00 0.00 0.00 78 1012.7
20240523034032 68 165 2.0 11.0 0.00 0.00 0.00 78 1012.5
20240523033532 68 0 3.0 11.0 0.00 0.00 0.00 78 1012.5
20240523033036 68 143 5.0 12.0 0.00 0.00 0.00 78 1012.7
20240523032533 68 161 1.0 12.0 0.00 0.00 0.00 77 1012.6
20240523032032 68 0 1.0 10.0 0.00 0.00 0.00 77 1012.5
20240523031537 68 179 1.0 11.0 0.00 0.00 0.00 76 1012.5
20240523031032 69 177 3.0 11.0 0.00 0.00 0.00 76 1012.5
20240523030532 69 244 4.0 11.0 0.00 0.00 0.00 75 1012.6
20240523030034 69 230 3.0 20.0 0.00 0.00 0.00 75 1012.7
20240523025532 69 249 3.0 22.0 0.00 0.00 0.00 74 1012.5
20240523025032 69 229 5.0 22.0 0.00 0.00 0.00 74 1012.6
20240523024534 69 155 5.0 16.0 0.00 0.00 0.00 73 1012.7
20240523024032 69 224 2.0 10.0 0.00 0.00 0.00 73 1012.8
20240523023530 69 246 2.0 10.0 0.00 0.00 0.00 73 1012.8
20240523023037 70 0 4.0 10.0 0.00 0.00 0.00 72 1012.9
20240523022535 70 244 4.0 10.0 0.00 0.00 0.00 72 1013.0
20240523022031 70 232 5.0 10.0 0.00 0.00 0.00 72 1013.1
20240523021540 70 248 4.0 11.0 0.00 0.00 0.00 71 1013.1
20240523021033 70 261 4.0 11.0 0.00 0.00 0.00 71 1013.2
20240523020536 70 250 3.0 11.0 0.00 0.00 0.00 71 1013.2
20240523020033 70 192 2.0 10.0 0.00 0.00 0.00 70 1013.2
20240523015533 70 132 3.0 10.0 0.00 0.00 0.00 70 1013.4
20240523015034 70 205 3.0 10.0 0.00 0.00 0.00 70 1013.4
20240523014535 70 0 3.0 10.0 0.00 0.00 0.00 70 1013.5
20240523014032 70 231 3.0 9.0 0.00 0.00 0.00 69 1013.5
20240523013533 71 205 3.0 10.0 0.00 0.00 0.00 69 1013.5
20240523013037 71 211 1.0 10.0 0.00 0.00 0.00 68 1013.4
20240523012529 71 0 1.0 7.0 0.00 0.00 0.00 67 1013.5
20240523012032 71 196 1.0 8.0 0.00 0.00 0.00 67 1013.5
20240523011537 71 257 1.0 10.0 0.00 0.00 0.00 67 1013.4
20240523011031 71 242 3.0 10.0 0.00 0.00 0.00 66 1013.3
20240523010532 72 0 0.0 8.0 0.00 0.00 0.00 66 1013.4
20240523010043 72 0 0.0 10.0 0.00 0.00 0.00 65 1013.5
20240523005529 72 0 1.0 10.0 0.00 0.00 0.00 65 1013.4
20240523005032 72 0 0.0 9.0 0.00 0.00 0.00 64 1013.4
20240523004541 72 0 0.0 7.0 0.00 0.00 0.00 64 1013.3
20240523004033 72 202 1.0 7.0 0.00 0.00 0.00 64 1013.4
20240523003532 73 0 0.0 5.0 0.00 0.00 0.00 63 1013.4
20240523003036 73 0 1.0 8.0 0.00 0.00 0.00 62 1013.4
20240523002531 73 0 0.0 8.0 0.00 0.00 0.00 62 1013.5
20240523002033 73 192 0.0 8.0 0.00 0.00 0.00 62 1013.5
20240523001539 74 223 2.0 8.0 0.00 0.00 0.00 61 1013.7
20240523001032 74 198 3.0 12.0 0.00 0.00 0.00 61 1013.7
20240523000532 74 217 2.0 12.0 0.00 0.00 0.00 60 1013.6
20240523000050 74 238 3.0 12.0 0.00 0.00 0.00 60 1013.6
20240522235528 74 235 3.0 9.0 0.00 0.00 0.00 60 1013.6
20240522235033 75 244 3.0 8.0 0.00 0.00 0.00 59 1013.4
20240522234533 75 248 0.0 9.0 0.00 0.00 0.00 59 1013.5
20240522234028 75 214 0.0 9.0 0.00 0.00 0.00 58 1013.4
20240522233527 76 0 2.0 10.0 0.00 0.00 0.00 57 1013.2
20240522233032 76 270 2.0 10.0 0.00 0.00 0.00 57 1013.2
20240522232531 76 217 4.0 10.0 0.00 0.00 0.00 56 1013.2
20240522232028 77 250 2.0 11.0 0.00 0.00 0.00 55 1013.3
20240522231543 77 281 4.0 13.0 0.00 0.00 0.00 55 1013.3
20240522231028 78 228 4.0 13.0 0.00 0.00 0.00 54 1013.1
20240522230528 78 206 3.0 13.0 0.00 0.00 0.00 53 1013.1
20240522230040 78 173 4.0 9.0 0.00 0.00 0.00 52 1013.0
20240522225529 78 177 3.0 14.0 0.00 0.00 0.00 52 1013.0
20240522225028 79 255 4.0 14.0 0.00 0.00 0.00 51 1013.1
20240522224538 79 119 3.0 12.0 0.00 0.00 0.00 50 1013.2
20240522224028 79 235 3.0 13.0 0.00 0.00 0.00 49 1013.1
20240522223529 80 265 4.0 14.0 0.00 0.00 0.00 48 1013.1
20240522223031 80 211 3.0 14.0 0.00 0.00 0.00 47 1013.1
20240522222530 80 0 0.0 9.0 0.00 0.00 0.00 46 1013.1
20240522222027 81 0 2.0 18.0 0.00 0.00 0.00 46 1013.2
20240522221550 80 0 3.0 18.0 0.00 0.00 0.00 45 1013.2
20240522221028 80 175 7.0 18.0 0.00 0.00 0.00 44 1013.3
20240522220529 81 245 5.0 14.0 0.00 0.00 0.00 45 1013.2
20240522220030 81 240 3.0 10.0 0.00 0.00 0.00 45 1013.2
20240522215530 81 222 2.0 9.0 0.00 0.00 0.00 44 1013.1
20240522215028 81 228 2.0 13.0 0.00 0.00 0.00 44 1013.2
20240522214538 81 267 3.0 13.0 0.00 0.00 0.00 43 1013.2
20240522214030 81 207 3.0 9.0 0.00 0.00 0.00 45 1013.3
20240522213528 81 267 2.0 8.0 0.00 0.00 0.00 45 1013.4
20240522213038 81 267 4.0 13.0 0.00 0.00 0.00 45 1013.3
20240522212529 81 205 4.0 13.0 0.00 0.00 0.00 44 1013.4
20240522212029 81 217 4.0 14.0 0.00 0.00 0.00 43 1013.5
20240522211543 81 278 4.0 14.0 0.00 0.00 0.00 44 1013.4
20240522211027 81 219 4.0 11.0 0.00 0.00 0.00 44 1013.4
20240522210529 83 233 3.0 8.0 0.00 0.00 0.00 42 1013.5
20240522210045 83 150 3.0 8.0 0.00 0.00 0.00 43 1013.5
20240522205528 83 250 2.0 11.0 0.00 0.00 0.00 45 1013.5
20240522205034 80 237 3.0 15.0 0.00 0.00 0.00 45 1013.6
20240522204606 81 157 6.0 15.0 0.00 0.00 0.00 44 1013.5
20240522204029 82 212 4.0 13.0 0.00 0.00 0.00 43 1013.5
20240522203531 84 208 4.0 12.0 0.00 0.00 0.00 43 1013.5
20240522203036 84 0 2.0 6.0 0.00 0.00 0.00 40 1013.6
20240522202531 84 263 2.0 7.0 0.00 0.00 0.00 40 1013.6
20240522202036 84 262 2.0 8.0 0.00 0.00 0.00 40 1013.5
20240522201543 84 128 2.0 8.0 0.00 0.00 0.00 40 1013.6
20240522201029 84 242 3.0 11.0 0.00 0.00 0.00 41 1013.6
20240522200530 83 291 4.0 11.0 0.00 0.00 0.00 42 1013.7
20240522200038 83 234 1.0 12.0 0.00 0.00 0.00 42 1013.8
20240522195529 81 221 6.0 12.0 0.00 0.00 0.00 42 1014.0
20240522195028 82 271 4.0 12.0 0.00 0.00 0.00 42 1013.9
20240522194550 82 267 3.0 10.0 0.00 0.00 0.00 42 1014.1
20240522194034 82 253 3.0 9.0 0.00 0.00 0.00 42 1014.0
20240522193532 82 257 3.0 13.0 0.00 0.00 0.00 44 1014.1
20240522193042 82 248 5.0 13.0 0.00 0.00 0.00 43 1014.0
20240522192527 83 227 2.0 12.0 0.00 0.00 0.00 44 1014.0
20240522192036 83 114 3.0 14.0 0.00 0.00 0.00 44 1013.9
20240522191533 83 224 4.0 14.0 0.00 0.00 0.00 44 1014.0
20240522191032 82 236 4.0 11.0 0.00 0.00 0.00 45 1014.0
20240522190535 82 255 4.0 12.0 0.00 0.00 0.00 45 1014.1
20240522190037 82 273 1.0 12.0 0.00 0.00 0.00 45 1014.1
20240522185533 82 247 5.0 12.0 0.00 0.00 0.00 46 1014.1
20240522185029 81 125 3.0 12.0 0.00 0.00 0.00 47 1014.2
20240522184552 81 220 3.0 12.0 0.00 0.00 0.00 44 1014.2
20240522184033 82 169 5.0 12.0 0.00 0.00 0.00 44 1014.4
20240522183530 83 279 5.0 11.0 0.00 0.00 0.00 41 1014.2
20240522183049 83 211 3.0 13.0 0.00 0.00 0.00 44 1014.4
20240522182533 83 265 4.0 13.0 0.00 0.00 0.00 42 1014.5
20240522182032 83 257 4.0 13.0 0.00 0.00 0.00 42 1014.7
20240522181536 84 238 2.0 9.0 0.00 0.00 0.00 42 1014.7
20240522181029 83 228 2.0 9.0 0.00 0.00 0.00 42 1014.7
20240522180532 82 255 4.0 11.0 0.00 0.00 0.00 43 1014.7
20240522180035 80 220 4.0 11.0 0.00 0.00 0.00 47 1014.8
20240522175529 80 232 3.0 12.0 0.00 0.00 0.00 47 1014.9
20240522175028 81 269 4.0 12.0 0.00 0.00 0.00 45 1014.8
20240522174717 83 220 2.0 9.0 0.00 0.00 0.00 44 1014.9
20240522174542 81 239 4.0 9.0 0.00 0.00 0.00 45 1014.9
20240522174422 82 245 3.0 16.0 0.00 0.00 0.00 44 1014.9
20240522174259 82 235 5.0 16.0 0.00 0.00 0.00 44 1015.0
20240522174139 82 209 4.0 14.0 0.00 0.00 0.00 43 1015.1
20240522173701 82 251 5.0 14.0 0.00 0.00 0.00 43 1015.1
20240522173053 81 259 3.0 13.0 0.00 0.00 0.00 46 1015.0
20240522172432 81 178 3.0 13.0 0.00 0.00 0.00 45 1015.1
20240522171754 81 219 5.0 13.0 0.00 0.00 0.00 46 1015.2
20240522171033 81 0 1.0 11.0 0.00 0.00 0.00 46 1015.2
20240522170400 81 283 5.0 11.0 0.00 0.00 0.00 46 1015.2
20240522165744 81 250 4.0 10.0 0.00 0.00 0.00 47 1015.2
20240522165130 81 241 4.0 10.0 0.00 0.00 0.00 47 1015.3
20240522164458 81 219 2.0 10.0 0.00 0.00 0.00 51 1015.3
20240522163842 81 241 3.0 9.0 0.00 0.00 0.00 49 1015.4
20240522163234 80 235 4.0 11.0 0.00 0.00 0.00 50 1015.4
20240522162631 79 248 2.0 11.0 0.00 0.00 0.00 53 1015.5
20240522162101 78 269 3.0 8.0 0.00 0.00 0.00 56 1015.5
20240522161540 78 299 3.0 11.0 0.00 0.00 0.00 54 1015.6
20240522161029 78 48 4.0 11.0 0.00 0.00 0.00 53 1015.6
20240522160530 79 221 4.0 11.0 0.00 0.00 0.00 51 1015.7
20240522160034 79 149 4.0 13.0 0.00 0.00 0.00 55 1015.6
20240522155532 79 129 5.0 13.0 0.00 0.00 0.00 54 1015.7
20240522155031 79 266 5.0 11.0 0.00 0.00 0.00 53 1015.8
20240522154533 80 242 3.0 8.0 0.00 0.00 0.00 55 1015.9
20240522154029 79 244 2.0 8.0 0.00 0.00 0.00 55 1016.0
20240522153528 78 222 3.0 10.0 0.00 0.00 0.00 53 1015.9
20240522153036 78 260 3.0 12.0 0.00 0.00 0.00 55 1015.9
20240522152532 79 242 4.0 12.0 0.00 0.00 0.00 54 1015.7
20240522152029 79 240 3.0 9.0 0.00 0.00 0.00 54 1015.7
20240522151543 79 236 3.0 9.0 0.00 0.00 0.00 55 1015.7
20240522151030 78 259 3.0 9.0 0.00 0.00 0.00 55 1015.9
20240522150529 78 264 2.0 8.0 0.00 0.00 0.00 53 1015.8
20240522150037 78 258 2.0 5.0 0.00 0.00 0.00 55 1015.7
20240522145535 79 252 1.0 5.0 0.00 0.00 0.00 55 1015.7
20240522145032 78 197 2.0 6.0 0.00 0.00 0.00 56 1015.8
20240522144540 78 0 2.0 7.0 0.00 0.00 0.00 56 1015.8
20240522144029 78 264 1.0 7.0 0.00 0.00 0.00 58 1015.7
20240522143529 78 265 1.0 6.0 0.00 0.00 0.00 57 1015.7
20240522143034 78 245 0.0 7.0 0.00 0.00 0.00 59 1015.8
20240522142529 77 241 1.0 7.0 0.00 0.00 0.00 57 1015.7
20240522142033 77 271 2.0 7.0 0.00 0.00 0.00 59 1015.7
20240522141542 77 245 2.0 5.0 0.00 0.00 0.00 58 1015.9
20240522141029 77 0 1.0 9.0 0.00 0.00 0.00 58 1015.6
20240522140532 76 217 2.0 9.0 0.00 0.00 0.00 60 1015.8
20240522140039 76 272 2.0 6.0 0.00 0.00 0.00 60 1016.0
20240522135529 75 229 1.0 9.0 0.00 0.00 0.00 60 1015.9
20240522135029 75 267 2.0 9.0 0.00 0.00 0.00 61 1015.8
20240522134540 75 260 1.0 7.0 0.00 0.00 0.00 60 1016.0
20240522134031 75 233 2.0 7.0 0.00 0.00 0.00 62 1015.9
20240522133529 74 264 2.0 7.0 0.00 0.00 0.00 62 1015.9
20240522133033 74 242 2.0 7.0 0.00 0.00 0.00 64 1016.0
20240522132529 73 234 2.0 7.0 0.00 0.00 0.00 64 1016.0
20240522132029 72 249 2.0 7.0 0.00 0.00 0.00 65 1015.9
20240522131538 72 244 2.0 4.0 0.00 0.00 0.00 64 1015.9
20240522131029 72 214 1.0 6.0 0.00 0.00 0.00 65 1015.9
20240522130532 72 269 1.0 6.0 0.00 0.00 0.00 66 1016.0
20240522130042 71 0 2.0 6.0 0.00 0.00 0.00 67 1016.0
20240522125528 71 223 1.0 5.0 0.00 0.00 0.00 67 1016.1
20240522125031 71 0 0.0 3.0 0.00 0.00 0.00 67 1016.1
20240522124537 71 0 1.0 4.0 0.00 0.00 0.00 68 1016.1
20240522124028 70 220 0.0 6.0 0.00 0.00 0.00 68 1016.0
20240522123529 69 248 1.0 6.0 0.00 0.00 0.00 70 1016.0
20240522123050 69 0 1.0 7.0 0.00 0.00 0.00 70 1015.9
20240522122529 68 254 1.0 7.0 0.00 0.00 0.00 70 1016.0
20240522122030 68 240 2.0 5.0 0.00 0.00 0.00 71 1016.0
20240522121536 68 256 2.0 7.0 0.00 0.00 0.00 72 1015.9
20240522121033 68 0 1.0 7.0 0.00 0.00 0.00 70 1016.0
20240522120532 67 240 0.0 5.0 0.00 0.00 0.00 71 1015.9
20240522120035 67 0 1.0 5.0 0.00 0.00 0.00 71 1016.0
20240522115529 67 250 2.0 6.0 0.00 0.00 0.00 69 1016.0
20240522115029 67 190 2.0 6.0 0.00 0.00 0.00 70 1016.1
20240522114605 67 124 0.0 6.0 0.00 0.00 0.00 71 1016.2
20240522114029 66 132 3.0 6.0 0.00 0.00 0.00 74 1016.1
20240522113532 65 0 0.0 5.0 0.00 0.00 0.00 74 1016.2
20240522113035 65 80 2.0 5.0 0.00 0.00 0.00 75 1016.3
20240522112530 65 121 2.0 4.0 0.00 0.00 0.00 75 1016.2
20240522112031 66 85 1.0 8.0 0.00 0.00 0.00 75 1016.3
20240522111534 65 55 3.0 8.0 0.00 0.00 0.00 74 1016.2
20240522111032 64 71 2.0 5.0 0.00 0.00 0.00 78 1016.3
20240522110529 64 78 2.0 7.0 0.00 0.00 0.00 79 1016.3
20240522110035 63 93 4.0 7.0 0.00 0.00 0.00 80 1016.3
20240522105530 63 63 4.0 7.0 0.00 0.00 0.00 80 1016.3
20240522105029 63 54 3.0 6.0 0.00 0.00 0.00 79 1016.4
20240522104535 64 55 2.0 6.0 0.00 0.00 0.00 78 1016.3
20240522104029 64 56 4.0 6.0 0.00 0.00 0.00 78 1016.4
20240522103529 64 69 3.0 5.0 0.00 0.00 0.00 77 1016.5
20240522103033 64 69 2.0 4.0 0.00 0.00 0.00 77 1016.5
20240522102528 64 82 0.0 6.0 0.00 0.00 0.00 77 1016.4
20240522102032 64 76 2.0 6.0 0.00 0.00 0.00 77 1016.4
20240522101534 64 63 2.0 5.0 0.00 0.00 0.00 77 1016.4
20240522101031 64 46 2.0 4.0 0.00 0.00 0.00 78 1016.3
20240522100528 64 0 1.0 5.0 0.00 0.00 0.00 79 1016.3
20240522100037 63 60 2.0 6.0 0.00 0.00 0.00 79 1016.3
20240522095529 63 60 2.0 6.0 0.00 0.00 0.00 81 1016.1
20240522095031 62 0 1.0 5.0 0.00 0.00 0.00 81 1016.1
20240522094542 61 0 0.0 4.0 0.00 0.00 0.00 83 1016.0
20240522094029 61 101 1.0 4.0 0.00 0.00 0.00 83 1016.0
20240522093529 61 217 1.0 5.0 0.00 0.00 0.00 83 1016.0
20240522093049 62 255 1.0 6.0 0.00 0.00 0.00 83 1015.9
20240522092529 62 194 1.0 8.0 0.00 0.00 0.00 83 1015.7
20240522092029 62 104 1.0 8.0 0.00 0.00 0.00 82 1015.6
20240522091538 62 259 2.0 8.0 0.00 0.00 0.00 82 1015.4
20240522091028 62 231 0.0 4.0 0.00 0.00 0.00 82 1015.4
20240522090532 62 230 1.0 3.0 0.00 0.00 0.00 82 1015.5
20240522090033 62 134 0.0 5.0 0.00 0.00 0.00 82 1015.4